• In Russia
  • List of Countries
  • For 7 days
  • Water Temperature
  • Satellite Maps
  • Weather Map
  • Weather Widgets
  • user-avatar
    Login

    Hourly Weather Salzburg

    Today, 23 February, Saturday

    Time Temperature Precipitation Wind Pressure Humidity
    00:00 -3°C° 0.1 mm 1 mps 634 mmHg 97%
    01:00 -4°C° 0 mm 1 mps 635 mmHg 98%
    02:00 -4°C° 0 mm 1 mps 635 mmHg 98%
    03:00 -6°C° 0 mm 1 mps 634 mmHg 97%
    04:00 -7°C° 0 mm 1 mps 634 mmHg 97%
    05:00 -8°C° 0 mm 1 mps 634 mmHg 96%
    06:00 -9°C° 0 mm 0 mps 634 mmHg 95%
    07:00 -11°C° 0 mm 0 mps 633 mmHg 94%
    08:00 -9°C° 0 mm 0 mps 634 mmHg 87%
    09:00 -7°C° 0 mm 0 mps 634 mmHg 80%
    10:00 -4°C° 0 mm 1 mps 635 mmHg 72%
    11:00 -3°C° 0 mm 1 mps 635 mmHg 73%
    12:00 -3°C° 0 mm 1 mps 635 mmHg 74%
    13:00 -2°C° 0 mm 1 mps 635 mmHg 75%
    14:00 -2°C° 0 mm 1 mps 635 mmHg 76%
    15:00 -2°C° 0 mm 1 mps 634 mmHg 77%
    16:00 -2°C° 0 mm 1 mps 634 mmHg 79%
    17:00 -4°C° 0 mm 1 mps 634 mmHg 78%
    18:00 -7°C° 0 mm 1 mps 633 mmHg 76%
    19:00 -9°C° 0 mm 1 mps 632 mmHg 75%
    20:00 -10°C° 0 mm 1 mps 633 mmHg 72%
    21:00 -10°C° 0 mm 1 mps 633 mmHg 68%
    22:00 -10°C° 0 mm 1 mps 633 mmHg 64%
    23:00 -10°C° 0 mm 1 mps 633 mmHg 63%

    Tomorrow, 24 February, Sunday

    Time Temperature Precipitation Wind Pressure Humidity
    00:00 -10°C° 0 mm 1 mps 633 mmHg 61%
    01:00 -10°C° 0 mm 1 mps 633 mmHg 59%
    02:00 -10°C° 0 mm 1 mps 633 mmHg 59%
    03:00 -10°C° 0 mm 1 mps 633 mmHg 59%
    04:00 -9°C° 0 mm 1 mps 632 mmHg 58%
    05:00 -9°C° 0 mm 1 mps 632 mmHg 58%
    06:00 -9°C° 0 mm 1 mps 632 mmHg 58%
    07:00 -10°C° 0 mm 1 mps 632 mmHg 58%
    08:00 -7°C° 0 mm 1 mps 633 mmHg 65%
    09:00 -4°C° 0 mm 0 mps 634 mmHg 72%
    10:00 -1°C° 0 mm 0 mps 635 mmHg 79%
    11:00 -1°C° 0 mm 0 mps 635 mmHg 82%
    12:00 0°C° 0 mm 1 mps 635 mmHg 85%
    13:00 +1°C° 0 mm 1 mps 635 mmHg 88%
    14:00 +1°C° 0 mm 1 mps 635 mmHg 89%
    15:00 +1°C° 0 mm 1 mps 635 mmHg 90%
    16:00 0°C° 0 mm 1 mps 635 mmHg 91%
    17:00 -1°C° 0 mm 1 mps 634 mmHg 88%
    18:00 -3°C° 0 mm 1 mps 634 mmHg 85%
    19:00 -4°C° 0 mm 1 mps 634 mmHg 83%
    20:00 -6°C° 0 mm 1 mps 634 mmHg 82%
    21:00 -6°C° 0 mm 1 mps 634 mmHg 82%
    22:00 -6°C° 0 mm 1 mps 634 mmHg 81%
    23:00 -6°C° 0 mm 1 mps 634 mmHg 82%

    Day after tomorrow, 25 February, Monday

    Time Temperature Precipitation Wind Pressure Humidity
    00:00 -6°C° 0 mm 1 mps 634 mmHg 82%
    01:00 -6°C° 0 mm 1 mps 634 mmHg 83%
    02:00 -6°C° 0 mm 1 mps 634 mmHg 83%
    03:00 -4°C° 0 mm 1 mps 634 mmHg 84%
    04:00 -4°C° 0 mm 1 mps 634 mmHg 85%
    05:00 -4°C° 0 mm 1 mps 634 mmHg 86%
    06:00 -4°C° 0 mm 1 mps 634 mmHg 86%
    07:00 -4°C° 0 mm 1 mps 634 mmHg 87%
    08:00 -2°C° 0 mm 1 mps 635 mmHg 89%
    09:00 0°C° 0 mm 1 mps 635 mmHg 91%
    10:00 0°C° 0 mm 0 mps 636 mmHg 93%
    11:00 +1°C° 0 mm 0 mps 636 mmHg 93%
    12:00 +2°C° 0 mm 1 mps 636 mmHg 93%
    13:00 +3°C° 0 mm 1 mps 635 mmHg 93%
    14:00 +2°C° 0 mm 1 mps 635 mmHg 94%
    15:00 +1°C° 0 mm 0 mps 635 mmHg 95%
    16:00 +1°C° 0 mm 0 mps 635 mmHg 96%
    17:00 +1°C° 0 mm 1 mps 635 mmHg 96%
    18:00 0°C° 0 mm 1 mps 635 mmHg 96%
    19:00 -1°C° 0 mm 1 mps 634 mmHg 96%
    20:00 -1°C° 0 mm 1 mps 634 mmHg 94%
    21:00 -2°C° 0 mm 1 mps 634 mmHg 92%
    22:00 -3°C° 0 mm 1 mps 634 mmHg 90%
    23:00 -3°C° 0 mm 1 mps 634 mmHg 87%

    26 February, Tuesday

    Time Temperature Precipitation Wind Pressure Humidity
    00:00 -3°C° 0 mm 1 mps 634 mmHg 85%
    01:00 -3°C° 0 mm 1 mps 634 mmHg 83%
    02:00 -4°C° 0 mm 1 mps 634 mmHg 81%
    03:00 -4°C° 0 mm 1 mps 633 mmHg 79%
    04:00 -4°C° 0 mm 1 mps 633 mmHg 77%
    05:00 -4°C° 0 mm 1 mps 633 mmHg 75%
    06:00 -4°C° 0 mm 1 mps 633 mmHg 73%
    07:00 -4°C° 0 mm 1 mps 633 mmHg 71%
    08:00 -2°C° 0 mm 1 mps 633 mmHg 76%
    09:00 0°C° 0 mm 1 mps 634 mmHg 81%
    10:00 +2°C° 0 mm 1 mps 634 mmHg 86%
    11:00 +2°C° 0 mm 1 mps 634 mmHg 87%
    12:00 +3°C° 0 mm 1 mps 634 mmHg 87%
    13:00 +3°C° 0 mm 1 mps 634 mmHg 87%
    14:00 +3°C° 0 mm 1 mps 634 mmHg 88%
    15:00 +3°C° 0 mm 1 mps 633 mmHg 90%
    16:00 +3°C° 0 mm 1 mps 633 mmHg 91%
    17:00 +1°C° 0 mm 1 mps 633 mmHg 87%
    18:00 0°C° 0 mm 1 mps 633 mmHg 84%
    19:00 -1°C° 0 mm 1 mps 632 mmHg 80%
    20:00 -2°C° 0 mm 1 mps 632 mmHg 79%
    21:00 -2°C° 0 mm 1 mps 632 mmHg 78%
    22:00 -2°C° 0 mm 1 mps 632 mmHg 76%
    23:00 -2°C° 0 mm 1 mps 632 mmHg 75%

    27 February, Wednesday

    Time Temperature Precipitation Wind Pressure Humidity
    00:00 -2°C° 0 mm 1 mps 632 mmHg 75%
    01:00 -2°C° 0 mm 1 mps 632 mmHg 74%
    02:00 -2°C° 0 mm 1 mps 632 mmHg 73%
    03:00 -2°C° 0 mm 1 mps 631 mmHg 72%
    04:00 -2°C° 0 mm 1 mps 631 mmHg 71%
    05:00 -2°C° 0 mm 1 mps 631 mmHg 71%
    06:00 -1°C° 0 mm 1 mps 631 mmHg 70%
    07:00 -1°C° 0 mm 1 mps 631 mmHg 70%
    08:00 0°C° 0 mm 1 mps 632 mmHg 76%
    09:00 +2°C° 0 mm 1 mps 632 mmHg 82%
    10:00 +3°C° 0 mm 0 mps 632 mmHg 88%
    11:00 +4°C° 0 mm 0 mps 632 mmHg 88%
    12:00 +5°C° 0 mm 0 mps 632 mmHg 88%
    13:00 +6°C° 0 mm 0 mps 632 mmHg 88%
    14:00 +5°C° 0 mm 0 mps 632 mmHg 89%
    15:00 +5°C° 0 mm 0 mps 631 mmHg 90%
    16:00 +4°C° 0 mm 0 mps 630 mmHg 91%
    17:00 +4°C° 0 mm 1 mps 630 mmHg 86%
    18:00 +3°C° 0 mm 1 mps 630 mmHg 81%
    19:00 +1°C° 0 mm 2 mps 630 mmHg 76%
    20:00 +1°C° 0 mm 1 mps 629 mmHg 75%
    21:00 +1°C° 0 mm 1 mps 629 mmHg 74%
    22:00 +1°C° 0 mm 1 mps 629 mmHg 72%
    23:00 0°C° 0 mm 1 mps 629 mmHg 73%

    28 February, Thursday

    Time Temperature Precipitation Wind Pressure Humidity
    00:00 0°C° 0 mm 1 mps 629 mmHg 75%
    01:00 0°C° 0 mm 1 mps 629 mmHg 76%
    02:00 0°C° 0 mm 1 mps 628 mmHg 77%
    03:00 0°C° 0 mm 1 mps 628 mmHg 78%
    04:00 0°C° 0 mm 1 mps 628 mmHg 79%
    05:00 -1°C° 0 mm 1 mps 628 mmHg 79%
    06:00 -1°C° 0 mm 1 mps 627 mmHg 78%
    07:00 -1°C° 0 mm 1 mps 627 mmHg 78%
    08:00 +1°C° 0 mm 1 mps 628 mmHg 81%
    09:00 +2°C° 0 mm 1 mps 628 mmHg 83%
    10:00 +4°C° 0 mm 1 mps 628 mmHg 86%
    11:00 +5°C° 0 mm 1 mps 628 mmHg 85%
    12:00 +4°C° 0 mm 2 mps 628 mmHg 84%
    13:00 +5°C° 0 mm 2 mps 628 mmHg 83%
    14:00 +4°C° 0 mm 2 mps 627 mmHg 83%
    15:00 +4°C° 0 mm 2 mps 627 mmHg 83%
    16:00 +4°C° 0 mm 2 mps 627 mmHg 83%
    17:00 +3°C° 0.2 mm 2 mps 627 mmHg 86%
    18:00 +2°C° 0.2 mm 2 mps 627 mmHg 88%
    19:00 -1°C° 0.2 mm 2 mps 627 mmHg 91%
    20:00 -1°C° 0.7 mm 2 mps 627 mmHg 93%
    21:00 -1°C° 0.7 mm 2 mps 627 mmHg 94%
    22:00 -1°C° 0.7 mm 2 mps 628 mmHg 96%
    23:00 -1°C° 0.6 mm 2 mps 628 mmHg 96%
    Show more